カタログに戻る

THOR BURNER 2 R/B

運用中SSO
NORAD 5904·ROCKET BODY·🇺🇸 United States

打ち上げ Mar 24, 1972 から Vandenberg Space Force Base

Loading…

次のパス (今後24時間)

TLE

最新Source: Space-Track

元期: Sep 14, 2026, 17:54 UTC

1 05904U 72018B   26257.74620032  .00000050  00000-0  41735-4 0  9991
2 05904  99.1144  75.3532 0047257 160.5150 199.7848 14.24523049825618

AllMySatでTHOR BURNER 2 R/Bをリアルタイム追跡

Download on the App Store